Weather History for Guadalupe Pass, TX

Change the Weather History Date:

Sunday, June 16, 2013

  Actual Average Record
Temperature  
Mean Temperature 80 °F -  
Max Temperature 93 °F 86 °F 99 °F (2008)
Min Temperature 70 °F 61 °F 57 °F (1999)
Cooling Degree Days 14    
Growing Degree Days 30 (Base 50)    
Moisture  
Dew Point 54 °F    
Average Humidity 44    
Maximum Humidity 61    
Minimum Humidity 25    
Precipitation  
Precipitation 0.00 in - - ()
Sea Level Pressure  
Sea Level Pressure 29.91 in    
Wind  
Wind Speed 15 mph (ENE)    
Max Wind Speed 29 mph    
Max Gust Speed 36 mph    
Visibility 8 miles    
Events      
Averages and records for this station are not official NWS values.
T = Trace of Precipitation, MM = Missing Value Source: NWS Daily Summary

Daily Weather History Graph

Daily Weather History Graph

Search for Another Location

Airport:

Trip Planner

Search our weather history database for the weather conditions in past years. The results will help you decide how hot, cold, wet, or windy it might be!

Date:

Astronomy

Jun. 16, 2013 Rise Set
Actual Time 5:53 AM MDT 8:06 PM MDT
Civil Twilight 5:25 AM MDT 8:35 PM MDT
Nautical Twilight 4:50 AM MDT 9:09 PM MDT
Astronomical Twilight 4:13 AM MDT 9:46 PM MDT
Moon 1:06 PM MDT (6/16) 12:36 AM MDT (6/16)
Length of Visible Light 15h 09m
Length of Day
14h 13m
Waxing Crescent, 50% of the Moon is Illuminated
Jun 16
Waxing Crescent
Jun 23
Full
Jun 29
Last Quarter
Jul 8
New
Jul 15
First Quarter

Hourly Weather History & Observations

Time (MDT) Temp. Heat Index Dew Point Humidity Pressure Visibility Wind Dir Wind Speed Gust Speed Precip Events Conditions
12:51 AM 71.1 °F - 57.0 °F 61% 29.89 in 9.0 mi NE 13.8 mph - N/A   Clear
1:51 AM 75.0 °F - 52.0 °F 44% 29.87 in 9.0 mi Variable 4.6 mph - N/A   Clear
2:51 AM 75.0 °F - 52.0 °F 44% 29.86 in 9.0 mi WSW 8.1 mph - N/A   Clear
3:51 AM 73.9 °F - 52.0 °F 46% 29.84 in 9.0 mi WSW 9.2 mph - N/A   Clear
4:51 AM 71.1 °F - 52.0 °F 51% 29.86 in 9.0 mi NE 16.1 mph - N/A   Clear
5:00 AM 70.0 °F - 53.1 °F 55% 30.15 in 9.0 mi NE 24.2 mph - N/A   Clear
5:51 AM 70.0 °F - 54.0 °F 57% 29.91 in 8.0 mi NE 17.3 mph - N/A   Clear
6:51 AM 72.0 °F - 53.1 °F 51% 29.91 in 8.0 mi NE 19.6 mph - N/A   Clear
7:51 AM 75.9 °F - 52.0 °F 43% 29.92 in 8.0 mi NE 19.6 mph - N/A   Clear
8:51 AM 79.0 °F - 50.0 °F 36% 29.92 in 8.0 mi NE 21.9 mph - N/A   Clear
9:51 AM 81.0 °F 80.5 °F 54.0 °F 39% 29.93 in 8.0 mi ENE 18.4 mph - N/A   Clear
10:51 AM 84.0 °F - 52.0 °F 33% 29.93 in 8.0 mi East 17.3 mph 21.9 mph N/A   Clear
11:51 AM 82.9 °F 81.8 °F 53.1 °F 36% 29.95 in 8.0 mi East 10.4 mph - N/A   Clear
12:51 PM 84.9 °F 83.2 °F 53.1 °F 33% 29.94 in 8.0 mi North - - N/A   Clear
1:51 PM 89.1 °F - 51.1 °F 27% 29.89 in 8.0 mi East 10.4 mph 17.3 mph N/A   Clear
2:51 PM 89.1 °F - 48.9 °F 25% 29.87 in 8.0 mi Calm Calm - N/A   Partly Cloudy
3:51 PM 88.0 °F - 48.9 °F 26% 29.85 in 8.0 mi NE 11.5 mph - N/A   Mostly Cloudy
4:51 PM 82.0 °F 81.6 °F 55.9 °F 41% 29.86 in 8.0 mi East 26.5 mph - N/A   Scattered Clouds
5:51 PM 82.9 °F 82.0 °F 55.0 °F 38% 29.86 in 8.0 mi NE 27.6 mph 35.7 mph N/A   Clear
6:51 PM 79.0 °F - 54.0 °F 42% 29.88 in 8.0 mi NE 21.9 mph - N/A   Scattered Clouds
7:51 PM 78.1 °F - 54.0 °F 43% 29.88 in 8.0 mi ENE 19.6 mph - N/A   Partly Cloudy
8:51 PM 73.0 °F - 57.0 °F 57% 29.89 in 8.0 mi ENE 28.8 mph - N/A   Partly Cloudy
9:51 PM 73.9 °F - 57.0 °F 55% 29.89 in 8.0 mi NE 26.5 mph - N/A   Clear
10:51 PM 73.9 °F - 57.0 °F 55% 29.91 in 8.0 mi East 8.1 mph - N/A   Overcast
11:31 PM 73.0 °F - 57.0 °F 57% 30.18 in 8.0 mi WSW 17.3 mph - N/A   Mostly Cloudy
11:51 PM 73.9 °F - 57.9 °F 57% 29.91 in 8.0 mi SW 11.5 mph - N/A   Scattered Clouds